| time (UTC) | temp F | wind direction | speed MPH | gust MPH | rain 1hr in | rain 24hr in | rain mn in | humidity % | barometer mb |
| 20260901131514 | 76 | 218 | 1.0 | 9.0 | 0.00 | 0.00 | 0.00 | 89 | 1019.0 |
| 20260901130011 | 74 | 195 | 4.0 | 8.0 | 0.00 | 0.00 | 0.00 | 91 | 1019.1 |
| 20260901124506 | 73 | 216 | 2.0 | 5.0 | 0.00 | 0.00 | 0.00 | 94 | 1019.1 |
| 20260901123002 | 72 | 188 | 1.0 | 3.0 | 0.00 | 0.00 | 0.00 | 95 | 1019.0 |
| 20260901121559 | 71 | 188 | 1.0 | 3.0 | 0.00 | 0.00 | 0.00 | 95 | 1018.8 |
| 20260901120119 | 71 | 188 | 0.0 | 2.0 | 0.00 | 0.00 | 0.00 | 95 | 1018.7 |
| 20260901114555 | 70 | 188 | 1.0 | 3.0 | 0.00 | 0.00 | 0.00 | 95 | 1018.5 |
| 20260901113057 | 70 | 188 | 0.0 | 2.0 | 0.00 | 0.00 | 0.00 | 95 | 1018.5 |
| 20260901111547 | 70 | 188 | 0.0 | 2.0 | 0.00 | 0.00 | 0.00 | 95 | 1018.3 |
| 20260901110050 | 70 | 188 | 1.0 | 3.0 | 0.00 | 0.00 | 0.00 | 95 | 1018.1 |
| 20260901104550 | 70 | 189 | 1.0 | 3.0 | 0.00 | 0.00 | 0.00 | 95 | 1017.9 |
| 20260901103042 | 69 | 189 | 0.0 | 1.0 | 0.00 | 0.00 | 0.00 | 94 | 1017.8 |
| 20260901101549 | 70 | 189 | 1.0 | 2.0 | 0.00 | 0.00 | 0.00 | 93 | 1017.8 |
| 20260901100038 | 71 | 189 | 1.0 | 3.0 | 0.00 | 0.00 | 0.00 | 93 | 1017.7 |
| 20260901094540 | 71 | 189 | 1.0 | 3.0 | 0.00 | 0.00 | 0.00 | 94 | 1017.6 |
| 20260901093045 | 71 | 206 | 0.0 | 3.0 | 0.00 | 0.00 | 0.00 | 93 | 1017.5 |
| 20260901091543 | 71 | 214 | 1.0 | 2.0 | 0.00 | 0.00 | 0.00 | 92 | 1017.5 |
| 20260901090033 | 71 | 214 | 0.0 | 2.0 | 0.00 | 0.00 | 0.00 | 91 | 1017.5 |
| 20260901084531 | 72 | 214 | 1.0 | 2.0 | 0.00 | 0.00 | 0.00 | 90 | 1017.4 |
| 20260901083028 | 73 | 214 | 0.0 | 2.0 | 0.00 | 0.00 | 0.00 | 89 | 1017.4 |
| 20260901081525 | 74 | 214 | 0.0 | 2.0 | 0.00 | 0.00 | 0.00 | 88 | 1017.3 |
| 20260901080030 | 75 | 216 | 2.0 | 5.0 | 0.00 | 0.00 | 0.00 | 88 | 1017.2 |
| 20260901074524 | 75 | 230 | 2.0 | 5.0 | 0.00 | 0.00 | 0.00 | 87 | 1017.2 |
| 20260901073023 | 75 | 215 | 3.0 | 6.0 | 0.00 | 0.00 | 0.00 | 87 | 1017.0 |
| 20260901071523 | 75 | 240 | 2.0 | 7.0 | 0.00 | 0.00 | 0.00 | 87 | 1017.1 |
| 20260901070022 | 75 | 233 | 0.0 | 5.0 | 0.00 | 0.00 | 0.00 | 87 | 1017.0 |
| 20260901064524 | 76 | 272 | 2.0 | 10.0 | 0.00 | 0.00 | 0.00 | 87 | 1017.0 |
| 20260901063021 | 76 | 229 | 1.0 | 6.0 | 0.00 | 0.00 | 0.00 | 87 | 1017.1 |
| 20260901061520 | 75 | 242 | 3.0 | 7.0 | 0.00 | 0.00 | 0.00 | 88 | 1017.1 |
| 20260901060022 | 76 | 259 | 0.0 | 6.0 | 0.00 | 0.00 | 0.00 | 87 | 1017.2 |
| 20260901054520 | 76 | 228 | 2.0 | 8.0 | 0.00 | 0.00 | 0.00 | 88 | 1017.2 |
| 20260901053019 | 76 | 224 | 1.0 | 6.0 | 0.00 | 0.00 | 0.00 | 88 | 1017.2 |
| 20260901051518 | 76 | 210 | 2.0 | 9.0 | 0.00 | 0.00 | 0.00 | 88 | 1017.1 |
| 20260901050017 | 76 | 221 | 4.0 | 10.0 | 0.00 | 0.00 | 0.00 | 89 | 1017.1 |
| 20260901044515 | 75 | 191 | 5.0 | 9.0 | 0.00 | 0.00 | 0.00 | 90 | 1017.0 |
| 20260901043012 | 75 | 202 | 5.0 | 9.0 | 0.00 | 0.00 | 0.00 | 91 | 1017.3 |
| 20260901041507 | 74 | 205 | 3.0 | 6.0 | 0.00 | 0.00 | 0.00 | 91 | 1017.6 |
| 20260901040005 | 74 | 172 | 3.0 | 5.0 | 0.00 | 0.00 | 0.00 | 90 | 1017.8 |
| 20260901034504 | 75 | 167 | 3.0 | 5.0 | 0.00 | 0.00 | 0.00 | 90 | 1017.8 |
| 20260901033007 | 74 | 170 | 2.0 | 5.0 | 0.00 | 0.00 | 0.00 | 90 | 1017.9 |
| 20260901031504 | 74 | 155 | 1.0 | 3.0 | 0.00 | 0.00 | 0.00 | 91 | 1018.0 |
| 20260901030003 | 74 | 137 | 0.0 | 2.0 | 0.00 | 0.00 | 0.00 | 91 | 1018.1 |
| 20260901024503 | 75 | 149 | 0.0 | 3.0 | 0.00 | 0.00 | 0.00 | 89 | 1018.1 |
| 20260901023009 | 75 | 149 | 2.0 | 4.0 | 0.00 | 0.00 | 0.00 | 90 | 1018.1 |
| 20260901021502 | 75 | 149 | 2.0 | 5.0 | 0.00 | 0.00 | 0.00 | 91 | 1018.1 |
| 20260901020001 | 74 | 161 | 1.0 | 3.0 | 0.00 | 0.00 | 0.00 | 91 | 1018.0 |
| 20260901014503 | 75 | 175 | 0.0 | 4.0 | 0.00 | 0.00 | 0.00 | 91 | 1017.9 |
| 20260901013101 | 75 | 182 | 0.0 | 0.0 | 0.00 | 0.00 | 0.00 | 90 | 1017.9 |
| 20260901011601 | 76 | 188 | 0.0 | 2.0 | 0.00 | 0.00 | 0.00 | 90 | 1017.8 |
| 20260901004606 | 78 | 186 | 0.0 | 2.0 | 0.00 | 0.00 | 0.00 | 85 | 1017.6 |
| 20260901003103 | 79 | 186 | 1.0 | 3.0 | 0.00 | 0.00 | 0.00 | 82 | 1017.5 |
| 20260901001616 | 81 | 186 | 2.0 | 3.0 | 0.00 | 0.00 | 0.00 | 79 | 1017.2 |
| 20260901000057 | 83 | 223 | 0.0 | 3.0 | 0.00 | 0.00 | 0.00 | 75 | 1017.3 |
| 20260831234558 | 84 | 219 | 1.0 | 4.0 | 0.00 | 0.00 | 0.00 | 72 | 1017.1 |
| 20260831233056 | 85 | 216 | 3.0 | 7.0 | 0.00 | 0.00 | 0.00 | 70 | 1017.1 |
| 20260831231555 | 86 | 217 | 3.0 | 6.0 | 0.00 | 0.00 | 0.00 | 69 | 1017.0 |
| 20260831230055 | 86 | 226 | 4.0 | 7.0 | 0.00 | 0.00 | 0.00 | 68 | 1016.9 |
| 20260831224557 | 87 | 208 | 4.0 | 9.0 | 0.00 | 0.00 | 0.00 | 66 | 1016.9 |
| 20260831223054 | 87 | 213 | 4.0 | 10.0 | 0.00 | 0.00 | 0.00 | 66 | 1016.8 |
| 20260831221601 | 87 | 210 | 4.0 | 11.0 | 0.00 | 0.00 | 0.00 | 64 | 1016.9 |
| 20260831220053 | 87 | 226 | 6.0 | 14.0 | 0.00 | 0.00 | 0.00 | 63 | 1016.9 |
| 20260831214557 | 88 | 222 | 7.0 | 15.0 | 0.00 | 0.00 | 0.00 | 61 | 1017.0 |
| 20260831213053 | 88 | 193 | 8.0 | 14.0 | 0.00 | 0.00 | 0.00 | 59 | 1017.1 |
| 20260831211549 | 89 | 206 | 6.0 | 12.0 | 0.00 | 0.00 | 0.00 | 62 | 1017.1 |
| 20260831210048 | 89 | 221 | 5.0 | 12.0 | 0.00 | 0.00 | 0.00 | 58 | 1017.2 |
| 20260831204553 | 89 | 186 | 7.0 | 12.0 | 0.00 | 0.00 | 0.00 | 58 | 1017.4 |
| 20260831203057 | 90 | 230 | 7.0 | 15.0 | 0.00 | 0.00 | 0.00 | 61 | 1017.7 |
| 20260831201541 | 89 | 202 | 7.0 | 14.0 | 0.00 | 0.00 | 0.00 | 60 | 1017.9 |
| 20260831200041 | 90 | 209 | 8.0 | 13.0 | 0.00 | 0.00 | 0.00 | 60 | 1018.2 |
| 20260831194539 | 90 | 209 | 7.0 | 11.0 | 0.00 | 0.00 | 0.00 | 61 | 1018.5 |
| 20260831193038 | 89 | 251 | 5.0 | 11.0 | 0.00 | 0.00 | 0.00 | 60 | 1018.7 |
| 20260831191543 | 89 | 228 | 6.0 | 10.0 | 0.00 | 0.00 | 0.00 | 61 | 1018.8 |
| 20260831190034 | 89 | 264 | 5.0 | 15.0 | 0.00 | 0.00 | 0.00 | 60 | 1018.9 |
| 20260831184532 | 88 | 219 | 5.0 | 12.0 | 0.00 | 0.00 | 0.00 | 64 | 1019.1 |
| 20260831183030 | 88 | 272 | 4.0 | 8.0 | 0.00 | 0.00 | 0.00 | 65 | 1019.1 |
| 20260831181528 | 87 | 202 | 4.0 | 9.0 | 0.00 | 0.00 | 0.00 | 69 | 1019.3 |
| 20260831180027 | 86 | 250 | 4.0 | 9.0 | 0.00 | 0.00 | 0.00 | 70 | 1019.3 |
| 20260831174523 | 85 | 253 | 3.0 | 11.0 | 0.00 | 0.00 | 0.00 | 71 | 1019.5 |
| 20260831173021 | 84 | 265 | 3.0 | 9.0 | 0.00 | 0.00 | 0.00 | 71 | 1019.6 |
| 20260831171522 | 85 | 276 | 5.0 | 12.0 | 0.00 | 0.00 | 0.00 | 71 | 1019.7 |
| 20260831170025 | 85 | 253 | 3.0 | 11.0 | 0.00 | 0.00 | 0.00 | 71 | 1019.7 |
| 20260831164528 | 85 | 266 | 4.0 | 9.0 | 0.00 | 0.00 | 0.00 | 73 | 1019.7 |
| 20260831163019 | 84 | 270 | 3.0 | 8.0 | 0.00 | 0.00 | 0.00 | 73 | 1019.7 |
| 20260831161521 | 85 | 264 | 5.0 | 10.0 | 0.00 | 0.00 | 0.00 | 74 | 1019.7 |
| 20260831160013 | 83 | 251 | 3.0 | 9.0 | 0.00 | 0.00 | 0.00 | 80 | 1019.7 |
| 20260831154510 | 81 | 218 | 4.0 | 11.0 | 0.00 | 0.00 | 0.00 | 80 | 1019.7 |
| 20260831153010 | 81 | 229 | 3.0 | 8.0 | 0.00 | 0.00 | 0.00 | 81 | 1019.7 |
| 20260831151507 | 81 | 268 | 4.0 | 8.0 | 0.00 | 0.00 | 0.00 | 80 | 1019.6 |
| 20260831150003 | 79 | 201 | 3.0 | 7.0 | 0.00 | 0.00 | 0.00 | 84 | 1019.6 |
| 20260831144605 | 79 | 213 | 3.0 | 8.0 | 0.00 | 0.00 | 0.00 | 83 | 1019.5 |
| 20260831143104 | 78 | 237 | 2.0 | 7.0 | 0.00 | 0.00 | 0.00 | 83 | 1019.4 |
| 20260831141600 | 78 | 224 | 3.0 | 7.0 | 0.00 | 0.00 | 0.00 | 83 | 1019.3 |
| 20260831140057 | 78 | 220 | 3.0 | 8.0 | 0.00 | 0.00 | 0.00 | 84 | 1019.3 |
| 20260831134554 | 76 | 221 | 4.0 | 6.0 | 0.00 | 0.00 | 0.00 | 87 | 1019.2 |
| 20260831133045 | 74 | 183 | 2.0 | 4.0 | 0.00 | 0.00 | 0.00 | 90 | 1019.3 |